Regional Weather Roundup
Issued by NWS

Home | Current Version | Previous Version | Graphics & Text | Print | Product List | Glossary On
Versions: 1 2 3 4 5 6 7 8 9 10 11 12 13 14 15 16 17 18 19 20 21 22 23 24 25 26 27
000
ASUS45 KCYS 211210
RWRWY

WYOMING REGIONAL WEATHER ROUNDUP
NATIONAL WEATHER SERVICE CHEYENNE WY
600 AM MDT MON AUG 21 2017

NOTE:  "FAIR" INDICATES FEW OR NO CLOUDS BELOW 12,000 FEET
WITH NO SIGNIFICANT WEATHER AND/OR OBSTRUCTIONS TO VISIBILITY.

WYZ001-211300-
YELLOWSTONE NATIONAL PARK

CITY           SKY/WX    TMP DP  RH WIND       PRES   REMARKS
LK YELLOWSTONE   N/A     36  35  96 CALM      30.35R
6HR MIN TEMP:  36; 6HR MAX TEMP:  44;

W YELLOWSTONE  NOT AVBL

$$
WYZ002>013-054>058-071-098>099-211300-
NORTHERN WYOMING

CITY           SKY/WX    TMP DP  RH WIND       PRES   REMARKS
JACKSON        FAIR      38  27  64 N6        30.27R WCI  33
CODY           FAIR      54  38  54 CALM      30.19R
GREYBULL       FAIR      54  38  54 SE5       30.10R
6HR MIN TEMP:  54; 6HR MAX TEMP:  71;

WORLAND        FAIR      49  35  58 CALM      30.12R
6HR MIN TEMP:  49; 6HR MAX TEMP:  68;

SHERIDAN       FAIR      53  40  61 CALM      30.12R
6HR MIN TEMP:  50; 6HR MAX TEMP:  63;

BUFFALO        FAIR      58  35  42 NW10      30.15R
6HR MIN TEMP:  56; 6HR MAX TEMP:  68;

GILLETTE       FAIR      52  40  63 W5        30.09R
6HR MIN TEMP:  49; 6HR MAX TEMP:  67;

HULETT         FAIR      63  52  67 SW3       30.09R
NEWCASTLE      FAIR      61  54  77 NW7       30.06R

$$
WYZ014>020-022>026-101>103-211300-
CENTRAL WYOMING

CITY           SKY/WX    TMP DP  RH WIND       PRES   REMARKS
BIG PINEY      FAIR      41  30  65 NE7       30.29R
6HR MIN TEMP:  39; 6HR MAX TEMP:  49;

PINEDALE       FAIR      37  32  81 NW6       30.30R WCI  33
DUBOIS         FAIR      45  25  45 NW10      30.28R
LANDER           N/A    N/A N/A N/A MISG      30.17R
RIVERTON       FAIR      54  38  54 N5        30.19R
6HR MIN TEMP:  53; 6HR MAX TEMP:  67;

CASPER         FAIR      47  39  74 W3        30.18R
6HR MIN TEMP:  47; 6HR MAX TEMP:  65;

DOUGLAS        FAIR      58  40  51 NW13      30.14R
6HR MIN TEMP:  56; 6HR MAX TEMP:  65;


$$
WYZ021-027>030-104>119-211300-
SOUTHERN WYOMING

CITY           SKY/WX    TMP DP  RH WIND       PRES   REMARKS
EVANSTON       FAIR      55  33  43 S7        30.28R
6HR MIN TEMP:  50; 6HR MAX TEMP:  63;

KEMMERER         N/A     45  32  61 N12       30.30S
FORT BRIDGER   FAIR      57  31  37 SW8       30.29S
ROCK SPRINGS   FAIR      58  35  42 CALM      30.24S
6HR MIN TEMP:  57; 6HR MAX TEMP:  67;

RAWLINS        FAIR      47  35  63 NW5       30.26R
6HR MIN TEMP:  47; 6HR MAX TEMP:  67;

SARATOGA       FAIR      46  37  71 S10       30.28R
LARAMIE        FAIR      45  36  70 SE6       30.26S
6HR MIN TEMP:  44; 6HR MAX TEMP:  56;

CHEYENNE       FAIR      55  41  59 CALM      30.15S
6HR MIN TEMP:  55; 6HR MAX TEMP:  65;

TORRINGTON     FAIR      60  60 100 CALM      30.03R FOG
6HR MIN TEMP:  60; 6HR MAX TEMP:  67;

PINE BLUFFS    FAIR      52  52 100 CALM      30.10S

$$




USA.gov is the U.S. government's official web portal to all federal, state and local government web resources and services.